Vorticity
nan nan nan nan nan nan nan nan nan nan nan nan nan nan nan nan nan nan nan nan nan nan nan nan nan nan nan nan nan nan nan nan nan nan nan nan nan nan nan nan nan nan nan nan nan nan nan nan nan nan nan nan nan nan nan nan nan nan nan nan nan nan nan nan nan nan nan nan nan
nan 9 10 9 8 8 8 10 10 10 10 10 10 9 9 8 9 9 10 10 10 11 10 10 12 13 13 13 11 11 11 11 11 11 11 12 12 10 9 9 10 10 10 8 7 7 8 8 8 8 9 8 8 8 8 10 10 9 9 10 8 7 6 5 7 7 7 8 nan
nan 8 9 8 8 8 8 8 10 10 9 9 10 10 9 8 9 10 11 12 12 10 10 11 12 12 11 11 11 12 12 12 11 10 10 9 9 9 9 10 10 10 9 8 9 10 10 9 7 8 9 10 9 8 7 8 10 8 5 5 7 7 7 6 7 7 8 8 nan
nan 8 8 10 10 8 6 8 10 9 7 7 9 10 9 9 10 11 12 12 10 10 11 12 11 10 10 11 12 13 13 13 11 9 8 9 9 9 10 10 10 9 9 10 11 11 10 9 7 8 10 10 8 7 7 9 9 8 6 5 9 10 10 9 7 8 9 8 nan
nan 7 8 10 9 6 5 9 10 7 6 8 10 9 9 9 10 11 12 10 10 12 14 13 11 11 11 12 12 12 12 11 9 8 8 9 9 9 10 10 9 9 9 10 10 9 8 7 6 8 9 7 7 9 11 11 9 8 9 9 10 11 10 10 8 9 9 9 nan
nan 8 9 11 9 6 6 11 12 8 7 9 11 10 9 9 11 12 12 11 12 13 12 10 10 11 11 10 9 9 8 8 9 10 10 9 9 10 10 9 9 9 10 10 9 8 6 4 6 8 8 7 8 10 11 10 8 9 10 10 10 10 10 10 9 10 10 12 nan
nan 8 9 10 9 7 8 11 11 9 8 10 12 12 10 11 13 13 11 11 11 9 8 8 10 10 10 8 8 8 8 9 10 10 10 9 10 10 9 9 9 10 10 9 7 6 5 5 7 8 8 7 7 8 10 12 11 11 10 10 9 8 8 8 10 10 11 11 nan
nan 10 10 10 9 8 10 10 9 8 8 10 12 12 11 12 12 10 9 9 9 9 9 11 12 12 10 10 9 9 9 9 9 9 9 10 10 9 8 8 8 8 8 7 7 7 8 8 9 9 8 7 8 9 12 15 14 12 10 8 8 8 8 9 10 11 10 9 nan
nan 11 11 11 9 9 10 9 8 8 9 12 13 12 11 10 9 7 6 6 9 10 11 13 13 12 11 11 10 8 8 8 8 9 10 10 9 8 7 6 7 6 6 6 7 8 10 10 11 11 11 11 13 14 13 12 11 10 8 6 7 9 10 10 11 11 10 7 nan
nan 9 9 10 10 10 11 9 8 8 9 12 12 11 10 9 7 6 6 8 11 11 12 13 12 11 10 9 8 8 7 7 8 9 9 9 9 8 7 8 7 6 6 6 6 6 8 9 12 14 15 16 16 14 11 8 8 7 7 5 8 9 10 10 11 11 10 8 nan
nan 8 8 9 11 10 10 8 7 8 9 11 11 10 9 8 7 8 9 12 12 12 11 12 11 9 7 6 7 8 8 9 10 10 9 9 9 9 9 10 9 8 7 7 6 5 7 10 12 14 15 14 11 8 8 8 8 8 8 8 10 9 8 10 11 11 9 8 nan
nan 8 8 10 11 10 9 6 7 9 10 12 10 9 8 9 10 10 11 12 11 10 9 11 10 8 6 7 8 8 9 10 11 10 9 9 9 9 9 9 8 8 7 7 7 8 10 13 13 12 11 9 7 7 8 9 8 7 7 10 10 9 8 10 10 10 10 9 nan
nan 8 8 10 11 9 7 6 7 10 12 11 9 8 9 10 11 11 10 9 8 7 8 10 9 8 8 10 10 10 10 10 10 9 10 9 8 8 7 8 7 7 6 6 10 12 14 13 12 9 7 7 9 10 11 10 8 7 7 9 9 9 9 8 9 10 11 11 nan
nan 9 9 10 10 7 7 6 7 10 13 11 9 9 9 10 10 10 10 9 8 7 7 7 7 9 12 13 13 13 12 11 10 10 10 9 8 8 7 7 7 6 6 9 12 15 14 13 10 8 7 8 9 11 11 11 10 8 8 8 8 8 7 7 9 10 11 11 nan
nan 9 9 9 8 6 7 6 7 11 12 10 9 9 9 9 10 10 11 10 7 6 6 7 9 11 13 14 13 12 11 10 10 9 9 8 8 8 7 7 8 8 10 12 12 13 13 12 10 9 9 8 8 9 11 12 11 10 10 9 7 6 6 7 9 10 10 8 nan
nan 9 9 9 8 7 7 7 9 11 12 11 10 9 9 9 10 11 11 8 5 7 9 10 9 10 11 11 11 10 9 8 8 8 7 7 7 7 8 9 9 10 11 11 10 10 11 11 11 11 10 9 8 9 10 10 10 10 10 9 7 7 7 9 9 10 9 8 nan
nan 9 9 9 8 8 8 9 11 13 13 12 11 9 8 9 10 11 11 8 8 11 12 11 9 10 10 9 8 7 7 7 7 7 8 9 8 8 9 10 10 10 10 9 8 9 10 12 12 12 11 10 9 9 9 9 8 9 8 8 8 8 9 9 9 9 8 8 nan
nan 9 9 9 9 9 10 11 13 14 13 11 8 8 9 10 11 11 11 10 12 13 12 9 9 11 11 9 7 7 8 9 9 10 11 11 10 10 10 10 10 10 9 9 9 9 9 10 11 10 10 9 9 9 8 8 8 8 8 8 9 10 10 10 9 9 8 8 nan
nan 9 10 9 10 10 11 12 12 12 10 8 8 10 11 12 11 10 11 12 13 12 10 8 9 10 11 10 9 10 11 11 12 12 12 12 11 10 10 10 10 10 10 10 10 9 9 9 9 9 9 9 9 9 9 9 9 8 8 8 9 10 10 10 9 9 9 8 nan
nan 10 10 10 11 11 11 11 10 9 9 9 11 11 11 11 10 11 11 11 12 11 10 9 9 9 10 9 10 11 11 11 12 11 11 11 11 10 10 9 9 10 10 10 10 9 9 8 9 9 9 9 9 9 9 8 9 9 8 8 8 9 9 9 10 10 10 9 nan
nan 10 10 11 12 12 11 10 10 9 9 11 11 11 10 10 11 11 11 11 11 10 10 9 9 9 9 9 9 9 9 11 11 10 10 10 9 9 9 8 8 8 9 10 10 9 9 9 9 9 9 8 8 8 8 7 8 8 8 8 9 9 10 10 10 10 10 9 nan
nan 11 12 12 12 12 11 10 10 10 10 10 10 10 10 11 11 11 11 10 10 9 9 8 9 9 9 9 8 8 8 11 11 10 10 9 8 8 8 7 8 8 9 8 9 8 8 9 9 9 8 8 8 8 8 7 7 7 7 9 9 10 10 11 11 11 11 10 nan
nan 11 11 11 12 12 11 10 10 10 10 10 10 10 10 11 11 10 10 10 10 9 7 7 8 10 10 10 9 9 9 11 11 11 11 10 9 8 8 8 8 8 7 5 7 7 7 6 7 8 9 8 8 8 7 7 6 6 6 7 8 9 10 11 11 12 12 13 nan
nan 11 10 12 14 11 9 9 9 10 9 9 9 9 10 10 9 9 9 10 10 9 8 9 10 10 9 9 10 10 10 10 9 9 9 10 9 8 7 7 7 6 5 9 14 13 10 7 7 7 7 8 7 7 7 7 7 7 6 6 6 6 7 9 10 10 10 12 nan
nan 12 12 13 12 10 9 9 9 9 9 9 9 9 9 9 8 8 9 9 9 10 10 11 10 9 8 8 9 10 10 9 8 7 7 7 8 8 7 7 6 6 9 19 23 16 11 10 9 8 7 7 7 7 7 8 9 8 8 6 5 5 5 6 7 8 8 9 nan
nan 12 11 11 10 10 9 9 9 9 9 9 9 9 8 7 7 8 9 9 9 9 9 8 8 9 8 8 10 9 8 7 8 7 7 7 7 7 7 7 6 8 17 25 20 12 9 10 10 8 7 7 8 7 7 8 10 10 9 8 6 6 5 5 5 6 7 7 nan
nan 11 10 10 10 9 9 8 9 9 9 9 8 8 7 7 7 9 8 8 8 8 6 6 7 7 6 8 10 9 7 8 9 9 9 8 8 7 7 7 7 13 24 27 16 9 7 8 7 5 4 7 9 8 7 8 8 9 8 8 8 8 7 5 4 5 6 6 nan
nan 10 10 10 9 9 8 9 9 9 9 8 7 7 8 8 9 8 8 8 7 5 4 4 4 3 5 10 11 10 9 9 9 9 9 9 9 7 6 6 11 19 28 24 11 7 7 7 5 4 3 5 6 7 8 8 7 6 7 8 8 8 8 6 5 5 5 6 nan
nan 10 10 9 8 8 9 9 9 8 8 7 7 8 9 8 8 7 7 7 5 3 3 4 4 7 11 13 12 9 8 7 8 9 10 10 9 8 7 8 13 22 26 18 7 7 7 7 6 5 4 3 4 7 8 8 7 7 7 8 9 9 8 7 8 8 7 7 nan
nan 9 9 9 8 8 9 9 8 8 7 7 9 9 8 8 7 7 7 6 4 5 6 8 11 14 15 13 10 8 7 7 10 11 11 10 8 7 7 7 12 20 23 15 7 8 8 8 7 6 5 2 3 6 9 10 9 9 9 9 10 10 9 8 8 9 8 8 nan
nan 9 9 9 8 8 8 9 9 8 8 10 10 8 7 7 7 6 5 5 6 9 11 13 15 15 13 10 10 9 8 9 10 11 11 10 8 6 5 7 13 19 23 16 8 9 9 9 8 7 5 1 1 5 9 11 11 10 10 11 10 9 8 8 8 8 9 9 nan
nan 9 9 8 8 8 9 9 9 10 10 10 9 8 7 7 6 6 7 8 10 11 11 12 12 11 9 9 11 11 10 10 11 11 11 9 7 5 7 9 13 20 24 16 8 10 10 10 9 7 5 1 1 5 10 11 9 9 10 10 9 8 8 8 8 8 8 8 nan
nan 9 9 9 8 8 9 9 9 10 10 9 8 7 7 6 7 8 8 9 10 10 10 10 9 8 7 8 10 10 9 9 10 10 9 8 7 7 7 7 14 22 23 14 8 10 10 10 9 7 5 0 -1 4 8 9 8 9 9 9 8 8 8 9 8 8 7 7 nan
nan 9 9 9 8 9 9 9 9 9 9 8 8 8 8 7 8 7 7 9 10 11 10 10 9 8 8 9 9 9 8 8 9 8 8 7 7 7 6 7 17 26 22 12 8 9 10 10 9 6 2 -4 -3 3 8 9 9 10 10 10 10 10 10 10 9 9 8 7 nan
nan 8 8 9 9 9 9 9 8 9 8 8 8 8 8 8 7 7 8 10 10 10 10 10 10 10 10 10 11 10 8 8 8 8 8 8 8 8 6 8 19 28 20 10 8 9 9 9 8 4 -2 -8 -2 4 8 8 9 10 10 9 9 10 10 11 11 10 10 9 nan
nan 8 8 9 9 9 9 8 8 8 8 8 7 7 7 7 8 10 11 10 9 9 9 10 10 10 10 9 9 9 10 10 8 8 8 8 8 7 7 10 20 26 18 9 8 9 9 8 5 0 -6 -8 1 6 8 6 6 7 7 7 7 7 8 10 11 12 12 11 nan
nan 9 8 8 9 8 8 8 8 8 8 7 7 7 7 7 8 10 11 9 8 9 9 9 10 10 8 8 8 10 13 12 9 8 8 7 7 7 8 10 17 22 18 11 8 8 8 7 3 -3 -8 -5 5 8 8 7 7 6 5 5 6 6 8 9 10 12 14 16 nan
nan 9 9 8 8 8 8 8 8 8 7 7 7 7 7 6 7 10 10 9 9 9 9 9 9 9 9 10 10 12 13 12 11 9 7 6 7 8 9 10 13 18 20 15 9 8 8 6 2 -3 -6 -1 6 7 7 7 7 7 6 5 6 7 9 9 10 11 14 21 nan
nan 9 9 8 8 8 8 8 8 8 7 7 7 7 6 6 8 11 11 10 10 10 9 9 9 10 11 10 9 10 11 11 11 9 7 7 11 12 10 8 12 18 22 18 10 8 7 6 3 -1 -5 -2 4 6 6 7 8 7 7 7 8 8 9 10 10 10 11 17 nan
nan 10 9 9 8 8 8 8 8 7 8 9 8 7 6 7 10 11 10 10 12 12 11 11 11 11 12 9 8 9 8 8 10 10 10 12 15 13 6 6 14 18 22 18 10 8 7 6 3 -1 -7 -4 4 7 8 8 8 7 7 7 8 8 9 10 10 10 9 10 nan
nan nan nan nan nan nan nan nan nan nan nan nan nan nan nan nan nan nan nan nan nan nan nan nan nan nan nan nan nan nan nan nan nan nan nan nan nan nan nan nan nan nan nan nan nan nan nan nan nan nan nan nan nan nan nan nan nan nan nan nan nan nan nan nan nan nan nan nan nan
CAPE
nan nan nan nan nan nan nan nan nan nan nan nan nan nan nan nan nan nan nan nan nan nan nan nan nan nan nan nan nan nan nan nan nan nan nan nan nan nan nan nan nan nan nan nan nan nan nan nan nan nan 0 0 nan nan nan nan nan nan nan nan nan nan nan nan nan nan nan nan 0
nan nan nan nan nan nan nan nan nan nan nan nan nan nan nan nan nan nan nan nan nan nan nan nan nan nan nan nan nan nan nan nan nan nan nan nan nan nan nan nan nan nan nan nan nan nan nan nan nan nan 0 0 nan nan nan nan nan nan nan nan nan nan nan nan nan nan nan nan nan
nan nan nan nan nan nan nan nan nan nan nan nan nan nan nan nan nan nan nan nan nan nan nan nan nan nan nan nan nan nan nan nan nan nan nan nan nan nan nan nan nan nan nan nan nan nan nan nan 0 0 0 nan nan nan nan nan nan nan nan nan nan nan nan nan nan nan nan nan nan
nan nan nan nan nan nan nan nan nan nan nan nan nan nan nan nan nan nan nan nan nan nan nan nan nan nan nan nan nan nan nan nan nan nan nan nan nan nan nan nan nan nan nan nan nan nan nan nan nan nan nan nan nan nan nan nan nan nan nan nan nan nan nan nan nan nan nan nan nan
nan nan nan nan nan nan nan nan nan nan nan nan nan nan nan nan nan nan nan nan nan nan nan nan nan nan nan nan nan nan nan nan nan nan nan nan nan nan nan nan nan nan nan nan nan nan nan nan nan nan nan nan nan nan nan nan nan nan nan nan nan nan nan nan nan nan nan nan nan
nan nan nan nan nan nan nan nan nan nan nan nan nan nan nan nan nan nan nan nan nan nan nan nan nan nan nan nan nan nan nan nan nan nan nan nan nan nan nan nan nan nan nan nan nan nan nan nan nan nan nan nan nan nan nan nan nan nan nan nan nan nan nan nan nan nan nan nan nan
nan nan nan nan nan nan nan nan nan nan nan nan nan nan nan nan nan nan nan nan nan nan nan nan nan nan nan nan nan nan nan nan nan nan nan nan nan nan nan nan nan nan nan nan nan nan nan nan nan nan nan nan nan nan nan nan nan nan nan nan nan nan nan nan nan nan nan nan nan
nan nan nan nan nan nan nan nan nan nan nan nan nan nan nan nan nan nan nan nan nan nan nan nan nan nan nan nan nan nan nan nan nan nan nan nan nan nan nan nan nan nan nan nan nan nan nan nan nan nan nan nan nan nan nan nan nan nan nan nan nan nan nan nan nan nan nan nan nan
nan nan nan nan nan nan nan nan nan nan nan nan nan nan nan nan nan nan nan nan nan nan nan nan nan nan nan nan nan nan nan nan nan nan nan nan nan nan nan nan nan nan nan nan nan nan nan nan nan nan nan nan nan nan nan nan nan nan nan nan nan nan nan nan nan nan nan nan nan
nan nan nan nan nan nan nan nan nan nan nan nan nan nan nan nan nan nan nan nan nan nan nan nan nan nan nan nan nan nan nan nan nan nan nan nan nan nan nan nan nan nan nan nan nan nan nan nan nan nan nan nan nan nan nan nan nan nan nan nan nan nan nan nan nan nan nan nan nan
nan nan nan nan nan nan nan nan nan nan nan nan nan nan nan nan nan nan nan nan nan nan nan nan nan nan nan nan nan nan nan nan nan nan nan nan nan nan nan nan nan nan nan nan nan nan nan nan nan nan nan nan nan nan nan nan nan nan nan nan nan nan nan nan nan nan nan nan nan
nan nan nan nan nan nan nan nan nan nan nan nan nan nan nan nan nan nan nan nan nan nan nan nan nan nan nan nan nan nan nan nan nan nan nan nan nan nan nan nan nan nan nan nan nan nan nan nan nan nan nan nan nan nan nan nan nan nan nan nan nan nan nan nan nan nan nan nan nan
nan nan nan nan nan nan nan nan nan nan nan nan nan nan nan nan nan nan nan nan nan nan nan nan nan nan nan nan nan nan nan nan nan nan nan nan nan nan nan nan nan nan nan nan nan nan nan nan nan nan nan nan nan nan nan nan nan nan nan nan nan nan nan nan nan nan nan nan nan
nan nan nan nan nan nan nan nan nan nan nan nan nan nan nan nan nan nan nan nan nan nan nan nan nan nan nan nan nan nan nan nan nan nan nan nan nan nan nan nan nan nan nan nan nan nan nan nan nan nan nan nan nan nan nan nan nan nan nan nan nan nan nan nan nan nan nan nan nan
nan nan nan nan nan nan nan nan nan nan nan nan nan nan nan nan nan nan nan nan nan nan nan nan nan nan nan nan nan nan nan nan nan nan nan nan nan nan nan nan nan nan nan nan nan nan nan nan nan nan nan nan nan nan nan nan nan nan nan nan nan nan nan nan nan nan nan nan nan
nan nan nan nan nan nan nan nan nan nan nan nan nan nan nan nan nan nan nan nan nan nan nan nan nan nan nan nan nan nan nan nan nan nan nan nan nan nan nan nan nan nan nan nan nan nan nan nan nan nan nan nan nan nan nan nan nan nan nan nan nan nan nan nan nan nan nan nan nan
nan nan nan nan nan nan nan nan nan nan nan nan nan nan nan nan nan nan nan nan nan nan nan nan nan nan nan nan nan nan nan nan nan nan nan nan nan nan nan nan nan nan nan nan nan nan nan nan nan nan nan nan nan nan nan nan nan nan nan nan nan nan nan nan nan nan nan nan nan
nan nan nan nan nan nan nan nan nan nan nan nan nan nan nan nan nan nan nan nan nan nan nan nan nan nan nan nan nan nan nan nan nan nan nan nan nan nan nan nan nan nan nan nan nan nan nan nan nan nan nan nan nan nan nan nan nan nan nan nan nan nan nan nan nan nan nan nan nan
nan nan nan nan nan nan nan nan nan nan nan nan nan nan nan nan nan nan nan nan nan nan nan nan nan nan nan nan nan nan nan nan nan nan nan nan nan nan nan nan nan nan nan nan nan nan nan nan nan nan nan nan nan nan nan nan nan nan nan nan nan nan nan nan nan nan nan nan nan
nan nan nan nan nan nan nan nan nan nan nan nan nan nan nan nan nan nan nan nan nan nan nan nan nan nan nan nan nan nan nan nan nan nan nan nan nan nan nan nan nan nan nan nan nan nan nan nan nan nan nan nan nan nan nan nan nan nan nan nan nan nan nan nan nan nan nan nan nan
nan nan nan nan nan nan nan nan nan nan nan nan nan nan nan nan nan nan nan nan nan nan nan nan nan nan nan nan nan nan nan nan nan nan nan nan nan nan nan nan nan nan nan nan nan nan nan nan nan nan nan nan nan nan nan nan nan nan nan nan nan nan nan nan nan nan nan nan nan
nan nan nan nan nan nan nan nan nan nan nan nan nan nan nan nan nan nan nan nan nan nan nan nan nan nan nan nan nan nan nan nan nan nan nan nan nan nan nan nan nan nan nan nan nan nan nan nan nan nan nan nan nan nan nan nan nan nan nan nan nan nan nan nan nan nan nan nan nan
nan nan nan nan nan nan nan nan nan nan nan nan nan nan nan nan nan nan nan nan nan nan nan nan nan nan nan nan nan nan nan nan nan nan nan nan nan nan nan nan nan nan nan nan nan nan nan nan nan nan nan nan nan nan nan nan nan nan nan nan nan nan nan nan nan nan nan nan nan
nan nan nan nan nan nan nan nan nan nan nan nan nan nan nan nan nan nan nan nan nan nan nan nan nan nan nan nan nan nan nan nan nan nan nan nan nan nan nan nan nan nan nan nan nan nan nan nan nan nan nan nan nan nan nan nan nan nan nan nan nan nan nan nan nan nan nan nan nan
nan nan nan nan nan nan nan nan nan nan nan nan nan nan nan nan nan nan nan nan nan nan nan nan nan nan nan nan nan nan nan nan nan nan nan nan nan nan nan nan nan nan nan nan nan nan nan nan nan nan nan nan nan nan nan nan nan nan nan nan nan nan nan nan nan nan nan nan nan
nan nan nan nan nan nan nan nan nan nan nan nan nan nan nan nan nan nan nan nan nan nan nan nan nan nan nan nan nan nan nan nan nan nan nan nan nan nan nan nan nan nan nan nan nan nan nan nan nan nan nan nan nan nan nan nan nan nan nan nan nan nan nan nan nan nan nan nan nan
nan nan nan nan nan nan nan nan nan nan nan nan nan nan nan nan nan nan nan nan nan nan nan nan nan nan nan nan nan nan nan nan nan nan nan nan nan nan nan nan nan nan nan nan nan nan nan nan 0 0 nan nan nan nan nan nan nan nan nan nan nan nan nan nan nan nan nan nan nan
nan nan nan nan nan nan nan nan nan nan nan nan nan nan nan nan nan nan nan nan nan nan nan nan nan nan nan nan nan nan nan nan nan nan nan nan nan nan nan nan nan nan nan 0 0 0 0 0 0 0 nan nan nan nan nan nan nan nan nan nan nan nan nan nan nan nan nan nan nan
nan nan nan nan nan nan nan nan nan nan nan nan nan nan nan nan nan nan nan nan nan nan nan nan nan nan nan nan nan nan nan nan nan nan nan nan nan nan nan nan nan nan nan 1 1 1 0 0 0 0 nan nan nan nan nan nan nan nan nan nan nan nan nan nan nan nan nan nan nan
nan nan nan nan nan nan nan nan nan nan nan nan nan nan nan nan nan nan nan nan nan nan nan nan nan nan nan nan nan nan nan nan nan nan nan nan nan nan nan nan nan nan nan 0 1 1 1 0 0 0 0 0 nan nan nan nan nan nan nan nan nan nan nan nan nan nan nan nan nan
nan nan nan nan nan nan nan nan nan nan nan nan nan nan nan nan nan nan nan nan nan nan nan nan nan nan nan nan nan nan nan nan nan nan nan nan nan nan nan nan nan nan nan 0 0 0 0 0 1 1 1 1 nan nan nan nan nan nan nan nan nan nan nan nan nan nan nan nan nan
nan nan nan nan nan nan nan nan nan nan nan nan nan nan nan nan nan nan nan nan nan nan nan nan nan nan nan nan nan nan nan nan nan nan nan nan nan nan nan nan nan nan nan 0 0 0 0 0 1 1 2 1 nan nan nan nan nan nan nan nan nan nan nan nan nan nan nan nan nan
nan nan nan nan nan nan nan nan nan nan nan nan nan nan nan nan nan nan nan nan nan nan nan nan nan nan nan nan nan nan nan nan nan nan nan nan nan nan nan nan nan nan nan 0 1 1 1 1 2 2 3 1 nan nan nan nan nan nan nan nan nan nan nan nan nan nan nan nan nan
nan nan nan nan nan nan nan nan nan nan nan nan nan nan nan nan nan nan nan nan nan nan nan nan nan nan nan nan nan nan nan nan nan nan nan nan nan nan nan nan nan 0 0 0 1 1 1 2 3 3 3 1 nan nan nan nan nan nan nan nan nan nan nan nan nan nan nan nan nan
nan nan nan nan nan nan nan nan nan nan nan nan nan nan nan nan nan nan nan nan nan nan nan nan nan nan nan nan nan nan nan nan nan nan nan nan nan nan nan nan nan 1 1 1 1 1 2 3 4 4 4 0 nan nan nan nan nan nan nan nan nan nan nan nan nan nan nan nan nan
nan nan nan nan nan nan nan nan nan nan nan nan nan nan nan nan nan nan nan nan nan nan nan nan nan nan nan nan nan nan nan nan nan nan nan nan nan nan nan nan nan 0 0 1 2 2 2 3 4 4 3 nan nan nan nan nan nan nan nan nan nan nan nan nan nan nan nan nan nan
nan nan nan nan nan nan nan nan nan nan nan nan nan nan nan nan nan nan nan nan nan nan nan nan nan nan nan nan nan nan nan nan nan nan nan nan nan nan nan nan nan nan nan 1 2 2 3 3 3 3 1 nan nan nan nan nan nan nan nan nan nan nan nan nan nan nan nan nan nan
nan nan nan nan nan nan nan nan nan nan nan nan nan nan nan nan nan nan nan nan nan nan nan nan nan nan nan nan nan nan nan nan nan nan nan nan nan nan nan nan nan nan nan 2 2 2 2 2 2 2 0 nan nan nan nan nan nan nan nan nan nan nan nan nan nan nan nan nan nan
nan nan nan nan nan nan nan nan nan nan nan nan nan nan nan nan nan nan nan nan nan nan nan nan nan nan nan nan nan nan nan nan nan nan nan nan nan nan nan nan nan nan nan 2 2 2 2 2 1 1 nan nan nan nan nan nan nan nan nan nan nan nan nan nan nan nan nan nan 8
nan nan nan nan nan nan nan nan nan nan nan nan nan nan nan nan nan nan nan nan nan nan nan nan nan nan nan nan nan nan nan nan nan nan nan nan nan nan nan nan nan nan nan 2 2 2 1 1 0 0 0 nan nan nan nan nan nan nan nan nan nan nan nan nan nan nan nan nan nan
nan nan nan nan nan nan nan nan nan nan nan nan nan nan nan nan nan nan nan nan nan nan nan nan nan nan nan nan nan nan nan nan nan nan nan nan nan nan nan nan nan nan nan 2 2 2 1 1 1 1 0 nan nan nan nan nan nan nan nan nan nan nan nan nan nan nan nan nan nan